Location: Hastringsfeld
(50.9620°N, 10.4787°E)
Time: 04:33:51
(UTC+00:00)

COBE Rocket - Pass Details

Date: 26 September 2023
Orbit: 679 x 778 km, 97.1° (Epoch: 29 November)

Event Time Altitude Azimuth Distance (km) Brightness Sun altitude
Rises 04:04:32 0° 8° (N) 3,073 7.4 -11.1°
Reaches altitude 10° 04:06:49 10° 2° (N) 2,162 6.5 -10.7°
Maximum altitude 04:11:20 46° 290° (WNW) 947 4.1 -10.0°
Drops below altitude 10° 04:15:56 10° 218° (SW) 2,200 5.9 -9.3°
Sets 04:18:17 0° 213° (SSW) 3,133 6.8 -8.9°
